Presure
165 155 131 177 126 159 124 177 150 147 137 173 189 168 170 139 163 133 154 95 137 102 140 123 122 142 153 145 146 138 148 133 132 153 159 159 154 148 147 125 139 161 135 155 152
168 130 124 131 134 160 156 131 168 102 180 96 144 178 193 170 141 132 160 171 150 155 153 148 143 145 155 152 141 151 146 144 147 146 148 146 139 161 158 146 153 138 143 143 138
206 202 164 147 146 137 168 159 136 166 101 190 96 147 131 141 139 142 174 172 136 154 118 134 148 163 106 139 152 159 143 150 149 139 155 151 147 145 142 134 131 149 149 152 154
230 212 211 189 131 170 126 175 140 122 158 188 134 145 135 162 135 136 183 143 135 152 152 163 132 145 112 156 137 148 153 143 141 142 132 141 154 160 149 144 141 138 146 153 129
279 165 204 212 130 132 155 144 162 145 171 155 154 162 122 149 137 169 163 134 158 126 168 160 147 106 139 132 127 137 165 140 132 154 147 141 133 155 136 143 150 154 140 148 138
251 274 243 251 183 177 147 152 160 151 137 144 144 160 131 160 118 174 128 165 159 162 97 125 157 138 134 145 131 154 166 156 151 130 165 140 144 121 142 156 133 127 158 140 134
175 277 264 270 287 198 125 122 149 138 114 157 167 184 147 123 142 116 166 153 139 150 146 177 128 152 163 164 156 147 105 116 159 164 151 146 146 141 132 128 154 154 155 138 154
189 204 280 269 270 288 191 206 128 165 130 178 151 134 145 138 157 155 159 147 147 150 139 154 178 155 159 167 164 158 165 135 129 117 155 158 172 111 149 141 154 148 157 142 158
268 248 236 304 260 264 278 269 179 120 139 130 123 134 142 145 150 132 135 153 151 199 138 168 169 168 146 156 163 141 146 123 156 159 95 143 121 153 161 155 133 120 142 156 154
232 257 229 211 244 271 266 143 282 140 127 170 142 128 163 146 137 155 140 134 154 175 144 133 142 173 163 161 149 168 125 170 154 112 147 137 108 93 130 94 100 141 145 135 123
295 209 168 285 258 259 270 271 245 206 210 123 158 124 131 124 119 183 151 134 150 134 147 156 108 195 167 126 169 171 183 164 149 92 91 126 103 154 96 96 145 155 152 140 140
386 250 362 226 361 279 260 266 273 282 222 138 181 121 152 120 152 154 173 152 177 207 136 144 130 145 177 186 155 143 167 165 160 134 149 163 150 154 125 114 112 108 111 151 114
357 244 243 254 266 169 180 227 267 280 278 218 154 132 139 144 151 177 137 171 179 144 130 173 143 141 145 166 193 150 140 142 147 125 97 130 162 127 151 155 141 152 152 137 124
387 393 315 425 186 345 268 282 261 266 256 265 200 169 190 141 173 180 142 185 170 171 166 139 134 134 145 158 188 176 175 178 140 153 159 154 99 158 160 154 157 138 115 149 152
370 285 399 410 390 378 347 312 290 263 262 269 227 197 185 144 187 126 165 123 149 146 187 167 121 150 191 148 175 139 189 173 142 63 158 181 151 142 142 132 175 141 141 148 142
342 369 384 399 326 393 396 214 292 266 270 276 167 165 207 133 175 132 195 145 137 144 163 124 143 166 180 134 162 147 194 182 149 147 142 149 141 153 114 165 132 135 114 71 155
357 346 289 395 381 222 388 286 236 180 279 271 273 242 216 205 161 146 158 187 129 163 135 147 175 148 175 133 161 148 180 178 164 162 141 133 172 140 139 154 109 75 137 151 181
337 341 341 365 243 391 384 339 305 273 274 268 263 271 225 212 208 140 146 142 144 139 133 158 185 170 176 143 147 173 192 180 189 162 164 83 120 128 86 171 82 80 144 145 153
324 332 343 347 376 303 290 352 278 291 264 246 266 268 256 219 211 209 201 195 135 136 162 135 125 133 146 162 144 134 133 181 152 166 163 163 158 153 156 140 128 140 177 177 177
421 348 318 339 348 378 322 207 341 288 290 163 249 238 263 251 218 216 204 156 182 147 133 185 155 122 163 144 129 140 150 133 163 172 174 161 172 172 176 185 185 174 175 163 177
380 399 409 315 336 365 392 301 231 185 202 192 249 147 153 260 256 225 208 200 174 184 141 143 174 123 172 155 129 131 128 136 130 119 141 156 161 117 126 127 162 163 168 170 176
478 431 378 342 311 350 390 371 345 303 181 281 205 243 238 248 257 259 237 215 200 154 193 146 187 164 179 137 187 181 183 123 169 140 124 126 106 100 181 186 123 190 192 179 171
464 455 357 392 321 325 353 374 183 309 297 209 282 257 258 236 242 255 249 214 216 206 197 193 163 196 184 201 185 183 173 174 181 113 132 173 156 136 124 125 126 130 116 188 187
456 442 441 352 412 304 339 380 342 311 295 297 280 240 233 255 227 240 246 247 234 220 210 205 197 193 196 185 195 194 192 201 201 195 190 182 180 178 182 191 154 189 182 182 188
422 435 453 432 383 357 314 367 243 315 295 288 210 259 241 259 250 222 236 241 243 246 230 220 207 192 191 196 194 193 191 194 196 192 193 179 192 184 194 202 195 200 195 195 213
428 446 433 440 345 412 306 327 146 327 299 290 284 262 180 199 169 243 219 230 228 238 253 248 235 210 204 199 202 203 207 197 194 196 201 207 204 62 211 209 205 208 212 211 212
427 428 421 421 413 394 350 299 367 330 304 285 241 276 259 178 241 237 246 223 223 231 230 236 241 253 211 208 207 204 199 193 198 199 198 201 201 210 209 205 206 207 206 214 218
Wind_Speed
81 79 63 87 56 70 56 73 65 55 54 59 62 58 59 48 59 41 52 20 41 23 32 27 26 30 37 27 27 31 24 28 25 19 20 16 14 20 22 25 25 14 24 14 17
88 70 62 68 65 79 65 58 68 49 58 43 54 62 65 58 49 44 56 59 46 47 44 39 39 34 39 35 33 31 31 26 25 26 20 24 29 16 17 22 19 25 21 25 28
110 107 82 78 77 67 78 67 63 70 47 71 43 56 50 51 49 47 62 60 46 50 40 36 37 46 21 32 36 39 31 31 32 34 26 23 25 26 26 30 29 22 23 21 20
117 113 110 102 71 85 64 86 66 63 67 74 59 59 54 60 50 53 64 52 50 53 48 53 39 39 25 46 33 32 39 36 35 36 35 32 26 27 22 30 31 30 22 24 25
103 75 105 112 75 72 82 72 78 70 75 73 67 63 54 57 58 61 59 47 54 44 62 55 44 32 37 34 32 36 47 33 37 35 36 37 36 26 37 32 26 27 33 26 36
105 105 96 119 97 99 82 79 82 72 66 68 73 71 59 67 50 65 54 61 57 62 31 46 52 44 47 40 37 44 50 43 37 35 44 36 32 28 34 30 35 22 30 37 39
78 105 111 106 100 103 73 60 83 71 58 80 77 74 68 63 59 50 67 60 52 54 49 69 40 48 52 53 49 43 23 30 45 47 39 40 40 33 30 36 31 33 29 39 31
77 79 108 111 106 100 95 107 71 88 65 92 79 63 71 69 68 68 68 61 59 60 49 54 68 52 52 58 55 50 54 37 40 29 42 42 48 22 39 35 34 35 35 36 35
90 101 85 100 113 111 102 111 101 67 80 67 59 64 74 71 69 65 64 68 63 77 55 64 62 62 49 54 57 53 47 37 46 46 23 40 34 41 45 43 41 31 40 37 39
98 88 97 86 113 111 112 87 105 98 68 92 71 64 86 82 71 75 70 64 68 70 58 51 53 67 62 60 61 66 44 60 48 31 45 46 32 23 42 21 21 47 42 46 32
85 74 73 118 118 115 117 113 103 105 110 68 88 73 75 58 62 85 77 66 68 60 61 63 49 74 71 57 68 64 72 63 52 28 30 40 30 48 25 21 43 47 42 47 46
58 70 77 82 85 122 109 117 111 112 117 100 104 70 82 65 81 76 83 71 81 79 65 61 60 66 76 76 57 50 66 68 61 47 50 59 53 55 40 37 36 33 33 46 36
57 81 89 98 97 82 85 99 114 108 110 121 95 91 88 80 78 85 67 82 83 72 64 79 70 66 58 65 76 59 56 60 52 43 36 47 62 44 56 58 53 51 48 49 41
49 48 70 60 85 94 113 107 117 115 106 114 111 108 108 91 93 95 78 89 84 83 82 70 67 65 66 67 77 75 74 70 53 55 61 57 33 66 69 63 62 49 39 55 55
47 48 45 56 68 75 93 108 112 113 123 106 123 116 108 89 104 64 88 61 78 77 86 82 59 77 79 66 72 61 79 71 58 22 61 67 56 64 58 49 71 51 50 56 53
50 45 42 54 68 72 79 97 103 122 118 107 87 102 118 83 99 74 103 83 75 73 77 66 73 80 83 66 72 68 76 76 68 66 57 58 53 68 43 79 55 51 38 24 62
51 49 55 52 61 84 80 113 111 91 114 111 108 122 117 119 100 96 94 93 66 83 76 79 85 79 88 69 75 67 82 82 76 69 58 54 70 48 69 76 47 26 50 61 75
52 55 51 53 81 72 83 104 115 105 116 112 107 108 122 122 120 92 87 85 74 76 68 85 90 88 89 72 73 85 84 76 83 72 73 28 59 64 26 83 34 33 62 60 67
56 58 61 61 63 79 73 105 119 109 100 112 105 102 117 124 121 120 115 105 86 85 94 78 70 71 77 88 69 59 62 88 70 74 71 71 68 77 79 68 63 67 81 79 77
40 58 65 68 72 77 90 64 112 109 110 59 107 105 106 117 124 119 117 102 105 99 87 105 100 71 93 67 58 73 81 64 79 81 81 77 80 81 87 93 92 86 84 77 81
40 43 50 71 76 80 90 85 88 78 81 82 97 92 91 108 110 125 120 120 107 112 102 94 101 67 99 98 64 65 58 66 62 60 68 78 79 58 42 61 78 78 82 83 84
20 35 53 82 80 82 83 93 103 110 79 108 86 99 110 107 104 109 120 122 118 103 113 104 113 90 98 75 104 92 94 67 83 81 56 56 65 65 89 94 50 93 93 88 84
24 30 57 61 84 81 82 95 55 114 116 90 109 107 109 107 106 102 107 100 126 122 119 114 95 108 96 108 105 103 101 97 98 66 66 85 84 84 70 65 61 59 60 90 88
24 31 36 63 64 82 84 92 104 113 115 110 107 102 97 106 104 104 104 106 114 123 124 120 111 107 106 107 112 110 113 118 114 108 110 96 96 94 89 96 77 89 88 89 92
30 31 32 41 69 82 88 94 72 114 115 110 96 109 105 105 102 105 106 101 102 105 116 117 114 109 109 112 113 114 109 109 108 108 104 106 104 103 101 101 93 96 94 94 91
35 32 37 41 71 70 91 89 42 111 116 113 109 109 86 91 83 100 107 105 105 99 92 96 101 115 117 114 112 114 112 111 106 108 109 107 104 33 105 99 98 99 96 94 93
39 36 43 43 53 72 89 90 101 109 107 114 83 106 104 86 103 104 101 107 106 103 99 92 91 90 113 113 109 104 106 100 106 104 102 100 103 102 98 96 95 94 94 95 93
Wind_Direction
242 239 238 241 231 237 236 248 230 237 229 239 242 235 232 232 233 230 237 236 241 239 224 238 232 227 240 228 226 212 225 220 230 242 253 247 226 225 221 243 239 243 235 238 244
238 238 244 243 234 240 234 227 240 234 238 232 227 234 233 232 229 225 234 233 240 233 239 236 238 230 239 238 240 238 231 239 229 225 227 225 222 262 250 231 243 243 247 237 242
240 239 236 226 237 235 238 228 231 237 234 248 230 232 226 227 228 234 229 232 235 239 239 219 236 236 237 219 242 243 231 238 243 228 246 230 228 221 224 239 245 238 240 252 256
239 239 237 239 247 238 243 235 225 230 227 240 225 227 227 232 228 232 228 223 234 237 237 238 240 224 236 237 226 237 244 235 217 222 233 218 248 258 234 234 234 241 245 252 261
237 235 236 236 238 245 231 231 224 225 223 223 225 229 227 233 227 230 235 225 230 237 236 237 236 239 221 225 242 244 238 242 229 244 222 225 240 230 237 244 240 260 254 250 252
240 234 234 234 236 237 239 224 233 232 232 224 229 229 225 231 230 230 228 234 229 237 239 236 234 226 239 232 231 243 239 240 243 234 247 227 226 258 237 254 246 257 262 252 253
244 233 232 230 233 230 248 235 225 238 236 219 226 231 224 235 224 234 232 229 231 232 232 232 237 240 238 240 242 235 237 250 244 246 248 250 235 222 253 256 255 261 255 248 263
244 246 229 228 226 232 235 231 246 237 248 228 225 228 225 226 229 231 232 231 233 235 228 235 231 239 240 240 244 245 244 244 241 246 247 253 254 249 253 252 261 253 270 270 273
248 236 237 225 227 223 226 228 231 237 239 245 237 237 230 228 225 226 227 231 233 229 229 234 234 236 239 242 244 240 240 241 244 246 239 239 242 249 258 260 247 258 254 266 265
250 242 242 240 234 226 222 227 225 236 241 223 234 230 222 227 225 229 228 227 233 232 232 230 236 235 241 242 239 243 250 246 242 244 242 237 251 261 253 268 274 246 249 256 283
233 236 230 222 230 228 221 218 222 225 227 227 215 238 243 233 233 228 227 229 228 228 231 232 238 233 236 238 239 240 244 247 239 245 248 254 255 254 258 267 260 261 260 252 256
248 239 242 236 233 223 222 219 217 223 223 235 227 235 230 234 229 227 228 229 232 229 230 231 234 236 236 237 239 240 240 243 243 235 248 250 254 253 258 268 268 266 274 267 285
251 238 241 238 236 226 228 225 218 220 221 222 228 239 240 224 234 229 232 229 228 226 232 235 234 237 241 242 239 242 241 244 247 247 255 250 249 260 260 257 253 263 266 257 274
258 252 232 229 232 226 224 219 218 218 221 219 223 225 226 238 231 225 234 226 226 229 232 227 237 239 237 240 241 241 240 243 246 246 247 251 255 257 259 257 260 257 269 266 271
256 249 240 227 223 219 212 214 216 217 219 217 219 222 226 237 226 229 223 229 229 230 229 228 238 235 234 238 242 243 243 242 247 242 247 247 251 261 262 263 265 258 261 265 267
255 250 239 229 220 222 220 223 215 218 219 216 227 225 223 235 232 236 226 237 238 240 232 238 240 238 239 242 239 243 242 242 244 244 247 251 249 254 257 265 271 259 258 276 271
249 249 235 231 222 224 215 214 221 227 217 215 217 219 220 223 232 234 225 229 235 233 233 236 232 236 237 242 241 243 244 242 242 245 248 256 256 261 257 259 264 265 267 269 275
251 247 237 227 229 216 212 211 214 219 216 216 216 219 219 223 226 239 239 241 232 238 246 237 229 235 237 243 243 240 246 246 246 247 250 257 262 260 260 258 265 278 269 269 271
252 244 240 228 223 223 217 211 217 213 214 219 215 217 219 222 225 225 228 230 241 244 229 246 236 245 245 238 246 247 252 241 248 247 248 250 253 252 255 266 270 271 266 268 273
259 244 238 230 221 217 218 217 212 214 215 218 216 217 219 222 225 227 229 233 232 236 244 234 233 239 237 243 247 252 250 251 247 247 250 249 253 256 261 267 268 266 270 271 273
256 239 228 229 221 220 213 218 224 229 224 227 216 224 229 221 223 225 226 228 231 233 238 240 236 239 239 242 245 247 251 255 252 250 252 252 252 269 254 271 266 267 265 269 272
241 231 227 219 223 219 213 209 209 212 231 215 225 221 218 220 222 225 226 228 230 235 235 238 233 234 238 256 245 249 250 245 249 255 254 261 263 261 263 264 269 270 271 270 271
233 223 225 220 219 219 213 208 210 209 215 225 215 216 220 219 220 224 225 227 228 231 234 237 239 239 241 243 246 247 249 247 248 255 255 258 263 262 260 268 268 273 273 273 273
230 231 225 222 215 218 212 208 208 208 213 212 212 217 221 219 221 222 225 227 229 231 233 235 237 240 240 243 244 247 248 251 253 256 257 257 259 261 262 266 267 266 269 271 273
261 240 230 208 214 214 213 206 208 207 211 212 216 214 218 221 222 223 225 226 229 232 234 236 237 240 241 241 244 247 249 251 254 256 258 259 261 261 264 265 269 273 271 272 277
249 235 226 219 216 212 213 210 228 207 208 211 209 211 224 222 228 226 226 227 228 231 234 235 237 238 240 242 244 247 249 251 254 256 257 260 263 262 265 269 270 272 275 276 275
245 244 225 219 215 213 210 210 204 206 205 213 207 209 214 224 221 222 227 227 228 229 230 233 234 236 239 241 243 248 251 253 254 257 258 261 262 265 267 269 271 273 273 276 277